Zurück zum Katalog

BREEZE-M R/B

LostHEO
NORAD 32709·ROCKET BODY·🇷🇺 Russia

Gestartet Mar 14, 2008 von Baikonur Cosmodrome

Loading…

Nächste Überflüge (nächste 24 Stunden)

TLE

VeraltetSource: Space-Track

Epoche: Apr 1, 2026, 23:01 UTC

1 32709U 08011B   26091.95920100 -.00000925  00000-0 -44403-2 0  9990
2 32709  49.3374 337.6132 6513507 241.9231  38.8530  3.09678068143874

Verfolge BREEZE-M R/B in Echtzeit mit AllMySat

Download on the App Store